Regional Weather Roundup
Issued by NWS Sioux Falls, SD

Home | Current Version | Previous Version | Graphics & Text | Print | Product List | Glossary Off
Versions: 1 2 3 4 5 6 7 8 9 10 11 12 13 14 15 16 17 18 19 20 21 22 23 24 25 26 27 28 29 30 31 32 33 34 35 36 37 38 39 40 41 42 43 44 45 46 47 48 49 50

000
ASUS43 KFSD 031402
RWRFSD

WEATHER ROUNDUP FOR SE SOUTH DAKOTA/SW MINNESOTA/NW IOWA
NATIONAL WEATHER SERVICE SIOUX FALLS SD
900 AM CDT THU SEP 03 2015

NOTE: "FAIR" INDICATES FEW OR NO CLOUDS BELOW 12,000 FEET WITH NO
SIGNIFICANT WEATHER AND OR OBSTRUCTIONS TO VISIBILITY.


SDZ038>040-050-052>070-031500-
SOUTHEAST SOUTH DAKOTA

CITY           SKY/WX    TMP DP  RH WIND       PRES   REMARKS
BROOKINGS      SUNNY     72  66  83 SE10      29.86S
CHAMBERLAIN    SUNNY     70  67  91 E6        29.79R
HURON          SUNNY     72  68  87 SE12      29.78S
MADISON        FAIR      70  70 100 SE9       29.85R
MITCHELL       SUNNY     71  69  93 S10       29.81R
SIOUX FALLS    SUNNY     73  68  84 S7        29.85R
WINNER         FAIR      78  61  55 S7        29.78S
YANKTON        SUNNY     70  66  88 E6        29.82R
$$

MNZ071-072-080-081-089-090-097-098-031500-
SOUTHWEST MINNESOTA

CITY           SKY/WX    TMP DP  RH WIND       PRES   REMARKS
FAIRMONT       SUNNY     72  64  78 SE7       29.90R
JACKSON        SUNNY     72  70  94 S6        29.90R
LUVERNE        SUNNY     72  68  88 SE6       29.87S
MARSHALL       CLOUDY    70  64  83 SE7       29.87R
MONTEVIDEO     FOG       70  70 100 S10       29.88R VSB 3/4
PIPESTONE      SUNNY     72  68  88 S8        29.87S
REDWOOD FALLS  CLOUDY    70  69  97 SE7       29.87R FOG
TRACY          SUNNY     74  71  88 SE3       29.87S
WINDOM         SUNNY     73  70  88 CALM      29.89R
WORTHINGTON    SUNNY     72  66  83 S7        29.88S
$$

IAZ001>003-012>014-020>022-031-032-NEZ013-014-SDZ071-031500-
NORTHWEST IOWA

CITY           SKY/WX    TMP DP  RH WIND       PRES   REMARKS
DENISON        SUNNY     75  70  83 S9        29.87S
ESTHERVILLE    SUNNY     71  70  96 S8        29.90R
LE MARS        SUNNY     75  70  83 S7        29.86S
SIOUX CITY     SUNNY     74  68  81 SE9       29.84S
SPENCER        SUNNY     74  69  85 S8        29.89R
$$

ABBREVIATIONS USED IN REMARKS
   TC - TEMPERATURE IN CELSIUS
  WCI - WIND CHILL INDEX
   HX - HEAT INDEX
  VSB - VISIBILITY




USA.gov is the U.S. government's official web portal to all federal, state and local government web resources and services.